TimeMST,TemperatureF,Dew PointF,Humidity,Sea Level PressureIn,VisibilityMPH,Wind Direction,Wind SpeedMPH,Gust SpeedMPH,PrecipitationIn,Events,Conditions,WindDirDegrees,DateUTC
12:15 AM,22.1,19.2,89,29.96,10.0,SE,10.4,17.3,N/A,,Overcast,130,2013-02-11 07:15:00
12:35 AM,21.6,19.0,90,29.96,7.0,SE,10.4,-,N/A,,Overcast,130,2013-02-11 07:35:00
12:55 AM,21.0,18.0,88,29.96,7.0,SE,10.4,17.3,N/A,,Mostly Cloudy,130,2013-02-11 07:55:00
1:15 AM,20.8,18.1,89,29.96,3.0,SE,13.8,21.9,N/A,,Mostly Cloudy,130,2013-02-11 08:15:00
1:35 AM,19.4,16.7,89,29.97,3.0,ESE,13.8,20.7,N/A,,Overcast,120,2013-02-11 08:35:00
1:55 AM,19.4,15.8,86,29.97,4.0,SE,15.0,20.7,N/A,,Overcast,130,2013-02-11 08:55:00
2:15 AM,19.2,15.8,87,29.97,4.0,ESE,12.7,19.6,N/A,,Overcast,120,2013-02-11 09:15:00
2:35 AM,18.5,15.3,87,29.97,3.0,ESE,11.5,19.6,N/A,,Overcast,120,2013-02-11 09:35:00
2:55 AM,18.3,14.9,86,29.97,3.0,ESE,10.4,18.4,N/A,,Overcast,120,2013-02-11 09:55:00
3:15 AM,18.0,14.9,88,29.97,3.0,ESE,11.5,16.1,N/A,,Overcast,120,2013-02-11 10:15:00
3:35 AM,17.6,14.7,88,29.97,4.0,ESE,10.4,-,N/A,,Overcast,110,2013-02-11 10:35:00
3:55 AM,17.4,14.9,90,29.97,3.0,ESE,6.9,-,N/A,,Overcast,110,2013-02-11 10:55:00
4:15 AM,17.1,14.7,91,29.97,2.5,ESE,9.2,-,N/A,,Overcast,120,2013-02-11 11:15:00
4:55 AM,16.7,14.0,89,29.97,1.5,ESE,8.1,-,N/A,,Overcast,110,2013-02-11 11:55:00
5:15 AM,16.5,14.0,90,29.97,2.0,ESE,8.1,-,N/A,,Overcast,110,2013-02-11 12:15:00
5:35 AM,16.3,13.8,90,29.98,2.0,ESE,6.9,-,N/A,,Overcast,120,2013-02-11 12:35:00
5:55 AM,16.3,13.6,89,29.98,2.5,ESE,6.9,-,N/A,,Overcast,110,2013-02-11 12:55:00
6:15 AM,16.2,13.3,88,29.98,2.0,East,5.8,-,N/A,,Overcast,100,2013-02-11 13:15:00
6:35 AM,15.8,13.1,89,29.98,1.8,ESE,9.2,-,N/A,,Overcast,110,2013-02-11 13:35:00
6:55 AM,15.8,13.3,90,29.99,1.5,ESE,5.8,-,N/A,,Overcast,110,2013-02-11 13:55:00
7:15 AM,15.6,13.1,90,30.00,0.8,East,6.9,-,N/A,,Overcast,100,2013-02-11 14:15:00
7:35 AM,15.6,13.1,90,30.00,0.8,ESE,6.9,-,N/A,,Overcast,110,2013-02-11 14:35:00
7:55 AM,15.8,13.1,89,30.01,0.5,East,5.8,-,N/A,,Overcast,100,2013-02-11 14:55:00
8:15 AM,15.8,13.1,89,30.01,0.8,ESE,3.5,-,N/A,,Overcast,120,2013-02-11 15:15:00
8:35 AM,16.2,13.1,88,30.02,1.0,ESE,4.6,-,N/A,,Overcast,120,2013-02-11 15:35:00
8:55 AM,16.2,13.1,88,30.01,0.8,ESE,5.8,-,N/A,,Overcast,110,2013-02-11 15:55:00
9:15 AM,16.5,13.3,87,30.02,0.8,ESE,3.5,-,N/A,,Overcast,110,2013-02-11 16:15:00
9:35 AM,16.9,13.1,85,30.01,1.8,ESE,4.6,-,N/A,,Overcast,110,2013-02-11 16:35:00
9:55 AM,17.2,12.9,83,30.01,7.0,ESE,3.5,-,N/A,,Overcast,110,2013-02-11 16:55:00
10:15 AM,18.1,12.7,79,30.01,7.0,ESE,6.9,-,N/A,,Overcast,120,2013-02-11 17:15:00
10:35 AM,18.5,12.4,77,30.01,7.0,SE,6.9,-,N/A,,Overcast,140,2013-02-11 17:35:00
10:55 AM,18.0,12.4,79,30.01,5.0,ESE,5.8,-,N/A,,Overcast,120,2013-02-11 17:55:00
11:15 AM,18.1,12.7,79,30.01,1.5,ESE,4.6,-,N/A,,Overcast,120,2013-02-11 18:15:00
11:35 AM,18.0,13.3,82,30.00,1.0,Calm,Calm,-,N/A,,Overcast,0,2013-02-11 18:35:00
11:55 AM,19.0,13.5,79,29.99,1.0,SSE,4.6,-,N/A,,Overcast,150,2013-02-11 18:55:00
12:15 PM,19.0,13.1,78,29.98,3.0,Calm,Calm,-,N/A,,Overcast,0,2013-02-11 19:15:00
12:35 PM,21.4,14.5,75,29.98,4.0,NNE,3.5,-,N/A,,Overcast,20,2013-02-11 19:35:00
12:55 PM,20.3,14.9,80,29.97,3.0,NNE,4.6,-,N/A,,Overcast,30,2013-02-11 19:55:00
1:15 PM,18.9,15.1,85,29.96,0.8,North,4.6,-,N/A,,Overcast,360,2013-02-11 20:15:00
1:35 PM,18.5,14.5,85,29.96,3.0,Calm,Calm,-,N/A,,Overcast,0,2013-02-11 20:35:00
1:55 PM,19.4,14.2,80,29.95,7.0,ESE,3.5,-,N/A,,Overcast,120,2013-02-11 20:55:00
2:15 PM,19.4,14.0,80,29.95,10.0,Calm,Calm,-,N/A,,Overcast,0,2013-02-11 21:15:00
2:35 PM,20.8,14.2,75,29.95,10.0,Calm,Calm,-,N/A,,Overcast,0,2013-02-11 21:35:00
2:55 PM,21.7,14.7,74,29.95,10.0,Calm,Calm,-,N/A,,Overcast,0,2013-02-11 21:55:00
3:55 PM,22.3,12.7,67,29.95,10.0,Calm,Calm,-,N/A,,Scattered Clouds,0,2013-02-11 22:55:00
4:15 PM,22.5,12.2,65,29.95,10.0,Calm,Calm,-,N/A,,Clear,0,2013-02-11 23:15:00
4:35 PM,21.2,11.8,67,29.96,10.0,Calm,Calm,-,N/A,,Clear,0,2013-02-11 23:35:00
4:55 PM,20.3,12.6,72,29.96,10.0,Calm,Calm,-,N/A,,Clear,0,2013-02-11 23:55:00
5:15 PM,17.8,11.3,76,29.97,10.0,Calm,Calm,-,N/A,,Clear,0,2013-02-12 00:15:00
5:35 PM,14.9,10.2,82,29.97,10.0,South,4.6,-,N/A,,Scattered Clouds,180,2013-02-12 00:35:00
5:55 PM,14.2,10.6,86,29.98,10.0,West,3.5,-,N/A,,Scattered Clouds,260,2013-02-12 00:55:00
6:15 PM,13.5,8.1,79,29.99,10.0,Calm,Calm,-,N/A,,Scattered Clouds,0,2013-02-12 01:15:00
6:35 PM,13.1,9.3,85,30.00,10.0,NW,3.5,-,N/A,,Scattered Clouds,320,2013-02-12 01:35:00
6:55 PM,11.1,7.0,83,30.01,10.0,Calm,Calm,-,N/A,,Clear,0,2013-02-12 01:55:00
7:15 PM,10.4,7.0,86,30.02,10.0,Calm,Calm,-,N/A,,Clear,0,2013-02-12 02:15:00
7:35 PM,11.7,8.8,88,30.03,10.0,WSW,3.5,-,N/A,,Clear,240,2013-02-12 02:35:00
7:55 PM,9.0,4.8,83,30.03,10.0,West,6.9,-,N/A,,Clear,270,2013-02-12 02:55:00
8:15 PM,10.0,6.8,87,30.04,10.0,West,5.8,-,N/A,,Clear,270,2013-02-12 03:15:00
8:35 PM,9.1,5.0,83,30.04,10.0,West,8.1,-,N/A,,Clear,270,2013-02-12 03:35:00
8:55 PM,8.4,4.8,85,30.05,10.0,Calm,Calm,-,N/A,,Clear,0,2013-02-12 03:55:00
9:15 PM,7.3,3.6,85,30.04,10.0,Calm,Calm,-,N/A,,Clear,0,2013-02-12 04:15:00
9:35 PM,8.6,6.3,90,30.05,10.0,West,4.6,-,N/A,,Clear,270,2013-02-12 04:35:00
9:55 PM,6.1,2.7,86,30.05,10.0,WNW,5.8,-,N/A,,Clear,290,2013-02-12 04:55:00
10:15 PM,7.5,4.1,86,30.05,10.0,WNW,3.5,-,N/A,,Clear,300,2013-02-12 05:15:00
10:35 PM,8.4,5.2,87,30.05,10.0,Calm,Calm,-,N/A,,Clear,0,2013-02-12 05:35:00
10:55 PM,6.8,3.9,88,30.05,10.0,West,6.9,-,N/A,,Clear,260,2013-02-12 05:55:00
11:15 PM,7.2,2.3,80,30.05,10.0,West,4.6,-,N/A,,Clear,280,2013-02-12 06:15:00
11:35 PM,7.9,4.3,85,30.06,10.0,WNW,4.6,-,N/A,,Clear,300,2013-02-12 06:35:00
11:55 PM,7.9,4.5,86,30.07,10.0,NW,4.6,-,N/A,,Clear,320,2013-02-12 06:55:00